Theta_e
296 297 297 298 299 298 299 298 296 299 300 299 297 297 302 299 291 290 297 303 305 306 310 312 314 315 314 315 318 321 324 324 323 322 322 324 327 327 328 330 332 333 333 333 334 336 339 341 340 341 341 343 343 343 342 342 344 344 346 344 344 344 344 344 344 344 347 348 348 352 354 350 346 346 348 349 351 350 351 352 352 351 352 352 351 351 352
297 297 298 298 298 298 298 298 299 299 299 299 301 302 305 303 300 300 304 306 307 309 311 315 316 317 318 318 321 322 322 322 322 322 322 323 325 326 327 329 331 332 332 332 333 336 337 340 340 340 339 342 343 342 341 342 343 346 346 344 342 342 343 344 346 347 346 347 346 348 349 350 347 345 346 349 352 354 351 350 352 352 350 350 350 350 350
295 298 300 299 298 298 298 301 300 300 299 299 301 302 306 306 305 309 310 308 307 312 316 316 318 317 318 318 319 320 320 320 321 321 322 321 322 325 327 329 330 330 331 332 333 334 337 339 340 339 340 341 342 343 342 342 343 347 345 343 343 343 342 342 346 345 344 345 347 347 347 348 349 352 351 355 353 352 351 350 350 351 350 348 348 349 348
291 297 298 297 301 298 300 301 301 300 300 299 304 301 304 301 300 305 306 303 303 310 316 317 317 316 317 316 316 317 319 321 321 320 320 321 322 324 326 329 331 330 331 332 332 333 336 337 338 340 340 339 340 340 342 342 343 346 348 346 345 344 344 345 347 347 345 344 345 347 347 347 347 351 355 355 352 350 350 350 351 352 350 349 349 350 349
291 297 297 297 297 293 293 296 299 303 302 304 306 307 310 308 305 301 298 300 305 313 316 313 314 315 317 320 320 318 319 320 320 320 319 320 322 324 327 330 331 332 332 332 333 335 337 337 337 341 341 341 341 341 341 343 345 343 342 341 342 343 344 345 345 346 344 343 342 340 342 346 349 351 354 353 352 351 349 350 350 348 349 350 348 348 349
289 295 297 298 289 286 287 297 304 303 304 306 305 305 308 311 309 304 306 307 312 314 313 313 313 313 318 321 323 324 320 319 318 319 320 321 323 324 328 331 332 332 333 334 335 335 338 340 339 343 344 342 342 343 344 345 343 342 341 339 340 343 344 345 345 345 344 343 340 339 339 341 345 348 351 351 351 349 350 351 347 346 347 348 346 346 348
290 293 294 289 284 285 297 304 307 310 311 311 309 309 311 312 314 314 313 314 314 315 315 314 315 318 321 322 321 322 323 322 320 320 321 322 323 326 329 330 331 332 333 333 334 333 335 337 338 339 340 343 344 345 345 344 343 343 342 342 342 342 342 343 345 347 346 344 342 341 340 342 345 346 345 344 347 348 348 348 347 348 349 349 346 347 348
290 289 288 282 284 294 304 306 308 314 313 312 310 308 311 314 314 314 312 313 313 313 313 315 317 319 320 320 320 322 324 324 323 322 322 323 324 324 328 329 330 331 332 332 333 333 335 335 335 336 336 338 338 338 339 338 340 342 343 342 341 342 342 342 343 345 348 347 346 347 347 345 346 344 342 341 343 346 348 347 347 348 348 349 349 348 346
288 288 285 286 294 296 301 304 304 304 301 301 298 297 303 312 315 314 313 312 312 313 313 315 316 317 315 311 313 322 324 324 327 327 325 326 327 328 330 332 331 331 332 332 333 334 334 334 334 334 335 336 336 336 336 337 338 337 338 338 339 340 340 342 343 344 343 343 343 343 344 345 344 344 343 341 341 343 342 344 347 347 348 348 348 348 340
289 286 285 285 285 285 291 300 306 308 308 307 307 304 301 308 315 316 314 313 313 313 315 314 313 313 308 307 308 316 324 327 328 327 326 327 329 331 331 330 329 328 329 331 331 331 331 332 334 335 335 335 334 334 334 335 335 335 335 335 337 337 337 339 340 341 342 342 341 341 340 341 341 341 342 341 340 343 341 341 345 347 347 344 345 345 333
290 288 284 284 284 287 296 303 306 307 309 312 308 302 297 304 313 317 316 313 314 316 317 314 311 307 302 301 306 314 322 324 325 325 326 328 330 330 330 330 328 328 328 328 328 328 329 329 331 332 333 334 333 331 332 333 334 333 334 335 336 336 337 338 339 339 340 339 338 338 337 337 337 336 337 336 337 339 341 342 343 344 346 343 336 330 328
292 287 285 284 289 295 303 307 310 309 307 305 298 288 289 302 314 318 316 314 314 313 314 313 310 307 301 303 308 318 324 324 325 326 327 327 329 330 330 328 329 329 329 326 325 325 325 326 328 330 332 332 332 331 331 333 332 332 333 335 336 336 336 336 336 337 337 338 337 336 335 334 334 333 333 332 331 331 331 334 333 332 332 330 327 326 326
294 294 287 287 294 305 310 310 311 310 312 302 291 285 291 305 312 318 316 315 315 314 313 312 309 309 308 310 316 324 325 326 327 328 330 331 329 328 329 328 329 324 325 325 324 324 325 326 326 328 329 329 329 331 330 331 330 332 334 335 335 335 336 335 335 335 335 334 333 334 334 333 332 331 331 329 328 327 326 326 325 324 324 323 322 321 322
289 289 286 286 290 300 308 310 313 312 306 293 288 296 306 311 312 317 317 316 315 315 314 312 309 310 316 320 320 321 324 325 326 327 329 331 327 327 329 330 324 321 322 323 324 325 326 326 327 327 327 327 327 328 328 328 329 332 332 332 333 333 333 333 333 334 334 334 334 332 332 331 329 329 329 328 327 326 325 324 322 321 321 320 318 318 318
293 292 288 287 287 301 312 312 307 310 301 297 301 310 315 315 314 316 316 317 317 317 314 316 316 317 318 319 318 319 323 324 326 326 327 327 324 322 322 320 322 321 320 322 323 324 325 326 326 326 326 325 325 326 326 327 329 330 330 330 330 330 330 329 329 329 330 331 332 332 331 330 328 326 327 326 326 326 324 322 321 320 319 319 318 317 316
290 289 290 289 293 300 312 308 300 305 309 309 313 314 312 317 315 316 317 316 319 319 318 318 318 316 316 315 316 317 318 320 322 325 326 326 325 324 322 323 323 325 323 322 321 321 322 322 322 323 323 323 324 324 324 327 328 329 328 328 328 326 324 321 321 321 322 322 322 322 323 323 325 325 325 325 325 324 324 323 320 319 319 319 317 315 314
297 295 296 300 304 310 312 311 308 311 316 317 317 317 315 315 315 316 318 318 319 320 320 319 317 315 315 315 316 315 316 321 321 322 325 328 327 325 322 324 326 324 323 323 323 323 322 322 322 321 322 322 323 322 323 327 326 326 326 326 324 322 320 318 317 316 316 316 317 317 317 316 316 318 318 320 321 323 324 322 321 319 319 318 315 314 313
305 307 306 309 311 312 314 316 316 318 318 319 319 318 317 315 315 319 319 320 320 320 320 318 314 314 314 316 317 318 319 320 323 324 323 325 326 329 325 324 325 325 325 325 325 325 326 327 326 326 322 322 321 321 324 326 324 324 324 322 320 317 315 314 312 313 312 312 312 313 315 315 314 313 314 317 316 315 320 324 323 322 322 321 318 315 313
299 293 308 310 310 313 314 317 318 318 318 317 318 318 317 317 320 321 322 322 321 321 320 318 315 315 316 317 318 319 320 321 322 322 320 321 323 325 323 325 326 324 324 324 324 325 324 326 328 329 326 322 322 323 324 325 325 324 321 319 317 314 313 312 312 311 310 310 310 311 311 312 313 314 313 312 313 315 314 315 321 325 325 325 323 321 318
294 297 307 310 313 314 316 317 316 316 318 320 319 318 319 321 323 323 322 322 321 321 318 318 316 315 316 317 318 319 320 321 322 322 320 320 321 323 324 324 323 323 323 322 323 323 323 324 325 325 325 326 326 323 324 325 325 324 323 319 314 313 312 313 313 314 315 319 313 310 311 310 309 310 312 312 310 310 310 310 312 312 314 314 314 315 316
308 311 313 314 314 316 317 319 317 318 320 321 321 322 323 323 322 322 321 322 321 320 318 318 317 316 316 318 319 320 321 322 323 323 323 323 323 324 325 325 324 322 322 322 322 323 322 323 323 322 322 324 326 326 327 327 324 324 324 324 320 317 316 314 314 316 314 313 313 312 310 310 308 307 307 310 311 310 310 308 309 311 312 312 313 311 311
303 304 308 312 306 304 311 317 318 319 321 322 321 321 322 322 321 320 319 319 320 319 318 317 316 315 317 320 323 322 321 321 322 323 323 324 325 325 326 326 325 325 325 323 323 323 322 323 323 322 322 322 324 325 325 325 325 325 324 320 317 317 317 317 316 316 314 313 314 314 312 311 311 311 307 301 302 310 311 310 305 300 305 312 313 312 310
299 306 312 313 309 309 314 318 320 321 322 322 321 320 320 321 321 321 319 317 316 315 315 317 317 317 319 321 322 321 321 321 322 322 323 324 324 324 326 325 324 324 324 325 324 323 322 323 323 323 322 322 322 324 324 324 324 323 322 322 319 318 319 317 319 319 316 313 312 312 312 312 313 313 310 309 298 298 305 306 301 295 294 298 305 312 317
308 309 312 315 314 314 318 320 321 321 321 322 321 321 321 321 320 320 319 318 316 314 315 315 317 317 321 321 321 319 319 321 322 322 323 323 324 325 325 326 326 325 324 323 322 321 320 321 320 321 321 322 323 324 323 323 323 323 323 322 320 320 320 322 324 322 317 318 317 315 314 312 312 312 310 309 309 300 296 300 299 295 293 293 294 297 301
307 314 317 317 317 319 321 321 321 321 322 323 321 321 321 320 319 319 318 317 317 316 315 316 318 322 321 320 320 319 319 321 322 324 325 326 327 325 325 327 326 325 322 321 319 318 316 316 316 316 315 317 320 322 323 322 322 322 322 323 323 324 324 325 326 327 323 322 321 318 317 316 315 313 310 310 308 308 308 299 296 294 294 294 293 294 296
318 319 320 321 321 321 321 321 320 320 321 322 321 321 324 325 321 320 318 317 317 318 319 320 321 321 321 319 319 319 320 320 323 323 322 322 323 325 325 326 326 325 322 320 318 317 316 315 314 314 314 314 315 317 321 323 323 322 322 323 323 323 322 323 322 321 323 323 322 320 319 317 316 315 316 313 310 311 311 311 310 304 298 295 295 298 294
323 323 322 319 318 317 320 318 316 320 321 322 321 320 322 323 326 320 319 319 319 319 320 321 321 320 320 320 320 321 321 322 322 322 322 323 323 323 324 327 328 328 324 323 322 323 322 318 316 314 314 314 314 316 319 321 320 318 317 317 320 330 332 330 317 318 318 318 319 320 322 324 323 323 320 318 318 317 315 314 311 310 310 313 303 292 302
322 322 321 316 315 317 318 318 320 321 322 321 320 319 318 319 319 318 317 316 316 319 321 321 321 320 319 320 321 321 321 320 320 321 322 322 324 325 325 326 327 323 320 319 318 319 318 316 315 314 313 314 315 316 318 319 318 317 316 316 317 316 317 321 319 319 320 319 317 317 317 317 323 325 326 324 323 322 320 321 317 312 314 311 312 313 300
321 321 319 321 322 321 321 320 321 321 320 321 321 319 318 317 317 317 315 315 318 320 319 319 321 321 320 319 320 320 320 320 321 321 321 322 325 325 327 327 324 321 318 318 316 316 316 315 314 314 314 314 314 315 317 319 319 317 316 314 314 314 315 316 316 315 315 317 321 322 327 327 323 322 328 328 327 324 322 322 319 317 311 310 310 312 315
319 318 319 320 320 320 319 318 319 320 320 320 319 317 317 317 316 316 316 317 318 318 318 319 319 319 321 320 319 319 319 319 319 319 321 323 323 324 325 324 321 319 318 316 316 316 315 315 314 313 313 313 314 314 315 315 316 317 315 314 314 313 313 313 312 312 313 315 320 324 322 322 322 323 322 321 324 327 323 322 322 317 310 311 318 310 309
316 317 318 320 320 319 318 318 319 320 320 319 319 317 316 317 317 316 316 317 318 318 319 319 319 320 319 320 319 319 319 319 318 319 319 319 319 320 322 320 317 315 314 315 316 315 315 314 314 313 312 312 312 313 313 313 313 314 313 313 313 321 324 323 322 316 316 319 321 319 318 317 318 325 324 321 319 318 318 323 322 317 315 313 314 315 313
315 316 318 319 318 317 316 317 319 319 319 319 318 316 316 316 316 316 317 318 318 319 319 320 320 320 320 320 319 319 318 317 316 316 316 317 319 319 319 319 319 320 316 316 316 317 315 315 315 315 313 312 313 312 312 311 311 311 310 318 313 314 321 322 318 321 320 321 318 317 320 316 316 317 319 318 316 315 315 316 316 317 317 315 315 317 316
315 314 313 315 316 316 315 317 318 318 319 318 318 318 318 319 319 320 319 320 320 320 321 320 320 320 320 320 319 317 315 315 315 316 316 316 317 318 318 319 318 317 316 317 317 315 313 313 314 315 314 313 313 313 312 310 310 309 310 310 312 314 324 322 321 318 321 318 316 316 315 316 315 316 317 317 316 318 313 314 316 319 319 318 316 315 314
316 316 317 318 318 316 315 316 318 319 319 320 319 319 320 320 321 321 321 321 320 321 321 321 321 321 320 319 317 314 315 315 314 314 315 315 314 314 315 316 315 315 314 313 313 312 312 312 314 315 315 314 314 313 311 310 309 308 310 310 313 312 314 316 317 318 317 317 315 317 315 317 315 315 317 316 314 315 316 315 317 317 316 315 312 310 304
320 319 321 320 320 320 320 319 319 319 319 318 318 319 321 321 321 321 322 321 320 321 322 322 321 321 320 317 314 314 314 314 314 314 313 312 312 313 315 315 315 314 313 311 312 311 311 311 313 314 313 312 312 312 311 309 309 309 311 312 315 316 316 316 315 315 315 314 314 311 315 314 314 319 318 315 313 314 314 315 315 315 315 315 313 313 311
317 320 321 320 321 321 320 320 320 320 320 319 319 320 320 321 321 321 321 321 322 323 323 321 321 319 316 313 313 313 313 313 313 313 312 312 313 313 313 314 313 312 311 310 313 313 312 312 324 323 315 313 310 310 313 312 311 311 314 313 315 316 317 318 317 315 315 311 312 314 313 317 317 315 315 313 312 312 312 312 312 313 313 314 314 312 312
320 322 321 321 321 321 320 320 320 320 320 320 319 320 320 321 321 322 322 322 323 323 322 321 318 315 313 313 314 314 314 314 313 313 313 314 312 312 313 313 313 312 311 309 309 312 312 314 324 323 317 314 311 310 316 322 315 310 310 310 312 313 314 311 312 310 311 313 312 312 314 312 310 311 314 311 312 312 312 311 313 313 313 314 315 314 314
319 321 320 320 321 321 320 321 321 320 320 320 321 322 321 321 322 322 322 323 323 323 322 320 317 314 313 313 313 313 313 314 314 314 314 313 312 311 311 312 312 311 309 308 310 310 308 315 323 316 307 307 307 309 316 321 320 309 308 310 312 312 312 310 311 311 310 310 315 309 310 309 309 309 309 310 311 312 312 311 311 310 310 311 312 313 313
317 318 319 319 320 320 320 321 321 320 321 320 320 321 322 322 322 322 322 323 323 323 321 318 315 314 313 312 313 313 314 315 315 315 314 313 313 312 310 310 313 312 310 311 309 308 315 317 312 309 309 307 307 308 316 319 319 308 308 308 310 310 311 312 310 310 311 311 310 310 309 309 309 309 309 309 309 311 314 313 310 310 308 307 307 308 309
317 318 318 318 318 318 320 320 320 320 321 322 321 321 322 322 322 322 322 322 322 323 321 316 314 313 313 313 313 313 314 315 316 315 314 312 312 310 309 309 310 311 313 320 311 309 316 322 312 307 307 306 306 306 313 316 316 309 307 307 308 310 310 310 309 308 308 309 311 313 309 309 309 309 309 308 308 309 308 308 308 308 307 306 306 306 307
319 318 318 318 318 319 320 319 319 321 321 322 322 322 323 323 323 322 321 321 321 321 319 316 314 314 314 314 314 314 314 315 315 314 313 311 309 308 308 307 308 310 315 312 308 312 318 315 310 307 306 307 308 318 307 315 308 305 309 309 308 308 308 308 308 307 308 308 309 306 306 307 307 307 307 306 306 305 306 306 306 306 305 305 304 305 305
321 321 320 319 319 319 319 319 319 320 320 321 322 323 323 323 323 322 322 321 320 319 316 315 319 315 315 315 315 315 314 313 313 313 313 311 309 307 307 307 310 309 317 318 317 316 313 312 312 314 307 307 311 316 318 311 305 306 306 307 308 309 308 308 308 307 307 307 306 306 306 306 305 305 306 305 304 304 304 305 304 304 303 304 304 303 304
322 321 320 319 319 319 319 319 320 320 320 321 322 323 322 322 322 322 320 319 319 316 315 316 319 319 317 315 315 314 313 312 312 311 310 309 310 310 310 309 310 310 320 314 310 307 308 307 306 306 315 312 313 317 316 306 306 307 307 308 309 308 307 307 306 306 305 304 304 304 304 304 303 303 304 303 302 303 302 302 301 302 302 301 301 303 304
321 321 320 319 319 318 319 319 319 320 320 320 321 322 322 321 321 320 319 318 317 316 316 317 317 316 316 315 315 313 312 311 311 310 309 307 309 309 310 312 310 315 321 313 309 308 307 306 305 313 319 319 318 318 309 305 306 305 306 306 306 306 306 304 304 304 305 305 304 303 304 305 303 302 302 302 302 301 302 301 300 300 300 300 300 301 301
321 321 320 320 319 318 318 318 318 319 320 320 321 321 321 320 319 319 319 318 316 317 317 316 316 315 315 315 315 314 313 313 312 311 308 305 306 306 309 318 314 314 317 316 309 308 306 305 312 319 320 317 318 315 304 305 305 305 305 305 305 305 305 304 304 304 304 304 304 304 305 303 303 303 301 302 304 302 301 301 300 301 300 299 299 299 299
320 320 321 321 318 318 318 319 319 319 319 319 320 320 320 320 318 318 319 317 316 317 317 316 316 316 315 315 315 314 313 313 312 312 312 311 308 308 312 317 311 315 318 316 308 307 306 318 319 317 317 317 317 307 305 309 307 304 306 306 307 308 305 305 305 304 304 303 303 302 303 302 303 302 302 302 301 302 302 303 303 300 301 299 300 299 299
319 319 320 320 319 319 319 319 319 319 318 317 317 316 318 320 318 318 318 317 317 317 317 317 316 316 317 316 314 312 310 309 308 309 309 310 315 315 316 317 315 319 316 310 308 308 308 313 318 317 317 316 315 304 303 304 303 303 305 305 306 305 305 303 303 303 304 302 305 310 311 306 302 301 304 305 303 303 303 302 300 300 301 302 302 303 302
319 319 319 319 319 319 318 318 318 317 317 317 317 316 317 319 319 318 317 316 316 317 317 316 317 317 317 316 315 315 313 311 308 306 309 311 311 312 312 308 311 320 316 317 313 316 318 318 317 317 316 315 306 301 303 304 304 303 303 305 304 303 303 303 302 302 301 302 303 299 299 299 300 302 303 301 302 301 300 301 301 301 300 300 300 299 300
319 319 319 318 318 317 317 316 316 316 316 316 317 316 318 319 318 317 317 317 317 316 316 316 316 316 316 316 315 313 313 313 311 307 308 310 310 309 308 314 319 319 313 308 308 308 315 317 316 317 316 312 301 302 302 303 307 309 307 304 303 302 301 299 299 299 299 301 300 300 299 298 298 301 301 301 301 300 301 300 300 300 300 301 300 301 300
318 318 317 316 316 316 315 315 314 315 316 316 316 316 317 318 316 315 316 316 316 317 316 315 315 315 315 314 314 313 312 312 312 311 310 310 309 308 310 312 311 314 313 307 307 307 317 316 314 314 309 303 303 304 303 304 304 306 305 307 305 302 304 304 309 307 303 302 300 300 300 298 297 301 303 301 300 299 299 299 300 305 308 305 301 300 300
317 317 317 317 317 317 317 317 316 317 317 317 317 317 316 315 315 315 316 316 316 315 314 313 312 312 312 312 312 312 312 311 312 314 309 308 309 312 314 312 312 312 311 309 307 306 305 305 304 309 308 305 303 305 304 305 305 306 308 303 304 304 302 302 302 301 301 301 300 299 300 300 300 300 298 299 300 300 301 302 301 300 299 299 299 299 298
317 316 316 316 316 316 315 316 316 318 318 318 318 317 316 315 315 315 315 320 315 314 314 312 309 308 309 310 311 310 310 311 311 310 312 309 309 310 313 316 310 311 310 305 303 303 301 303 311 314 313 304 303 303 316 313 304 304 304 308 308 304 306 305 306 302 302 303 301 301 303 300 300 300 299 299 300 300 300 300 299 299 299 298 298 298 298
Wind_Speed
4 5 6 5 2 3 2 1 3 3 7 6 5 3 4 5 2 3 4 4 5 5 4 4 3 3 1 1 2 2 3 2 2 2 4 6 7 8 10 9 9 8 7 6 4 2 2 5 5 5 4 5 6 5 6 8 8 10 10 8 8 8 9 8 8 7 4 2 2 1 2 6 5 6 6 5 2 2 3 5 5 4 5 7 7 5 5
2 4 4 4 4 5 6 2 2 1 4 6 9 6 6 6 4 4 5 4 4 3 3 4 3 3 3 1 1 1 3 3 3 2 3 5 6 7 9 9 8 9 8 7 6 4 2 3 6 8 8 7 9 9 8 7 9 9 11 10 11 9 7 6 7 8 5 3 3 3 3 5 6 7 6 4 2 2 2 4 5 4 6 5 4 8 8
2 4 4 2 3 5 3 3 3 5 6 4 4 4 5 10 5 5 7 6 3 3 2 3 2 3 0 2 2 1 2 3 3 2 3 3 4 5 6 7 7 8 8 7 7 6 4 1 4 8 10 7 6 9 9 8 7 8 10 11 10 9 9 9 6 3 7 10 6 4 3 3 2 3 5 4 6 4 5 6 6 6 6 10 11 8 7
3 5 3 3 2 5 3 2 3 4 5 6 1 3 2 3 5 5 5 2 3 4 2 1 1 2 3 1 2 2 3 3 2 3 3 3 3 4 6 7 7 7 8 8 9 9 9 8 8 12 11 10 8 3 5 7 5 2 5 9 10 9 7 7 6 6 5 4 3 5 5 5 4 3 3 4 5 5 5 6 7 7 7 7 7 6 6
2 3 1 4 2 3 2 2 2 4 6 8 4 3 3 3 7 6 2 2 3 4 3 3 2 1 3 3 1 2 4 4 2 2 2 2 3 5 5 7 8 6 6 7 7 9 7 6 11 7 15 15 12 10 8 10 9 7 5 5 8 9 8 7 5 6 6 5 3 2 2 3 4 3 5 5 5 5 6 5 3 4 5 5 6 6 6
2 2 2 2 2 1 1 4 3 4 7 8 8 3 3 1 2 2 5 4 3 4 4 5 5 2 2 2 1 2 2 3 3 2 2 2 3 3 4 5 8 8 7 6 7 8 7 6 7 7 5 5 9 9 10 8 7 6 7 5 0 3 6 5 5 4 4 5 4 3 1 1 1 1 3 4 4 3 3 3 3 3 3 4 4 5 5
3 1 4 3 1 3 4 4 2 10 13 14 11 6 4 4 7 8 6 4 4 7 5 2 3 3 2 0 0 2 4 3 2 2 1 1 3 3 5 5 6 7 7 7 7 8 8 7 8 9 9 5 4 7 8 9 7 7 5 2 4 4 5 4 3 3 4 4 3 3 3 2 1 1 2 2 2 2 3 4 5 5 5 5 4 3 2
2 4 2 1 3 4 3 2 9 7 14 13 15 9 6 3 2 7 7 4 3 2 2 3 3 4 3 1 1 1 2 3 5 4 3 2 3 3 3 4 6 6 7 7 7 5 6 6 6 7 8 8 8 8 8 8 6 6 8 6 5 4 5 5 3 3 4 4 4 3 3 2 2 2 2 2 2 1 1 2 2 2 3 2 4 3 4
2 4 5 4 3 4 1 0 4 4 5 5 5 5 1 1 4 5 6 4 3 2 1 3 3 1 1 1 1 1 0 3 4 4 5 3 2 1 3 4 5 5 5 7 6 5 6 6 6 6 7 9 9 8 8 8 11 8 5 5 5 6 7 6 5 4 5 6 5 5 5 5 4 2 2 1 1 1 2 2 3 3 3 2 2 4 5
3 4 1 3 2 0 3 4 6 7 2 7 8 8 1 2 4 4 7 7 5 4 3 3 2 1 2 1 2 3 1 0 2 3 3 5 3 2 3 5 6 5 5 5 6 7 7 8 6 4 6 9 9 9 7 5 8 8 7 6 6 7 7 6 4 4 5 7 7 6 6 5 4 4 4 4 4 4 2 2 3 4 3 1 0 1 6
3 4 3 2 2 4 3 3 4 4 1 12 7 7 0 4 5 6 7 6 6 7 8 5 2 2 2 3 4 5 1 1 1 3 4 5 3 2 3 3 5 6 5 6 6 7 8 8 6 5 6 9 8 9 8 7 8 9 8 7 6 7 7 6 6 6 7 7 7 7 7 7 6 7 6 6 4 3 2 3 3 2 2 3 3 6 6
1 4 2 3 3 1 1 3 1 2 0 4 5 2 5 6 6 7 6 7 8 6 5 5 4 6 3 4 4 3 3 2 1 1 4 4 5 3 4 3 3 4 4 6 8 8 8 6 5 6 6 9 9 10 10 10 10 9 8 8 7 8 8 8 8 8 8 8 8 8 8 7 7 7 5 5 6 6 6 5 6 7 7 6 6 7 7
1 4 2 2 2 2 2 2 4 4 1 4 3 3 4 4 6 6 6 7 7 7 7 6 6 6 3 3 4 3 2 1 1 2 3 4 1 0 1 4 6 7 6 6 6 6 5 5 6 6 6 10 10 9 9 11 12 9 8 8 8 8 8 8 9 9 8 9 9 8 7 7 7 7 6 6 6 7 7 7 8 9 10 9 8 8 8
4 4 4 5 2 4 2 3 2 1 2 0 2 4 2 7 5 5 7 6 5 7 9 6 4 3 2 2 4 3 3 4 2 2 2 2 0 1 2 4 4 5 5 5 6 6 5 6 6 6 7 10 9 9 10 12 10 8 8 9 9 9 9 9 9 9 8 8 8 8 7 7 8 8 7 6 6 7 7 8 10 10 9 8 7 6 7
2 2 3 1 1 2 5 2 2 4 2 3 3 2 1 3 5 6 4 6 6 7 4 4 4 2 2 2 3 4 3 2 2 2 1 2 1 3 4 5 4 5 4 5 6 6 5 5 6 5 8 10 8 8 11 10 8 9 9 8 8 9 9 9 8 8 7 8 7 6 7 7 8 8 6 7 7 7 8 9 9 9 8 7 5 5 6
3 2 2 2 5 3 3 3 2 1 3 5 5 6 3 1 4 5 5 3 5 6 7 7 5 3 4 4 3 4 2 2 2 1 2 2 2 2 4 4 4 4 5 6 7 7 6 5 6 6 7 8 7 9 8 5 6 6 7 6 7 9 9 9 9 8 8 8 8 7 7 7 8 8 7 7 7 6 7 7 8 8 6 5 5 6 7
2 2 4 4 3 4 3 5 2 3 4 6 8 7 6 5 2 3 6 5 4 6 8 7 6 4 4 4 4 4 3 5 8 10 8 4 1 2 4 6 4 4 4 5 6 7 6 6 5 6 6 8 8 7 4 5 6 7 8 8 8 9 8 8 8 7 8 8 8 8 8 7 8 7 6 5 6 5 6 7 7 7 6 6 7 6 5
1 1 1 3 1 3 2 3 3 5 3 2 6 7 5 2 4 6 7 6 7 6 8 9 3 4 5 7 6 7 7 8 6 4 5 4 1 4 4 6 5 4 4 4 5 6 5 5 5 4 5 6 8 5 5 6 6 7 8 8 8 8 7 7 7 7 8 8 8 8 8 7 7 5 5 5 6 5 5 5 5 6 5 5 5 5 5
1 1 1 6 6 2 4 5 3 3 3 4 4 5 5 5 6 5 6 9 8 8 6 8 9 7 7 9 6 6 8 8 5 3 4 8 7 5 5 6 6 4 3 3 4 5 5 3 4 4 5 5 6 6 5 6 6 6 8 8 8 7 7 7 6 7 8 7 7 7 6 6 6 6 6 6 6 6 5 5 5 5 5 5 4 5 5
2 2 2 3 2 2 3 6 7 5 4 4 4 4 4 6 6 8 8 8 8 7 8 8 10 8 7 10 8 8 7 7 5 5 9 9 8 6 6 6 7 8 7 7 7 8 8 6 6 6 5 4 3 5 6 7 5 5 6 7 7 7 7 6 6 6 7 10 9 7 7 7 7 7 7 6 7 6 5 5 5 5 5 5 4 3 4
1 4 4 4 5 4 2 1 0 3 7 8 5 6 8 9 9 7 5 6 8 8 8 8 10 10 6 8 8 9 7 8 7 5 6 8 10 8 7 4 4 8 7 8 8 8 7 5 7 7 7 6 5 5 4 4 5 6 7 7 6 6 6 6 7 6 6 6 6 7 6 7 6 6 5 6 5 4 3 2 2 4 6 4 3 3 4
4 5 4 5 6 2 2 2 4 4 4 8 8 7 8 9 9 8 9 5 5 8 8 9 10 11 7 6 8 9 5 6 9 6 6 7 7 8 7 5 5 7 7 7 7 7 6 6 7 8 7 7 5 5 5 5 6 6 6 6 5 5 5 6 6 6 5 5 5 5 6 6 6 6 8 7 5 4 4 7 7 6 3 3 3 4 5
3 5 9 7 5 3 4 7 4 4 5 8 9 8 8 7 8 9 11 9 7 6 5 6 10 9 8 8 9 9 8 7 6 5 5 8 8 8 8 8 6 7 7 7 7 6 5 5 6 6 7 6 6 5 5 4 5 6 6 6 5 5 5 5 5 5 5 5 4 5 5 5 6 6 6 6 8 8 7 6 6 7 8 6 3 3 4
1 6 8 7 5 5 4 5 6 5 4 7 7 6 7 9 9 8 9 9 11 7 7 6 9 10 8 8 11 10 7 6 7 7 4 4 7 9 8 8 6 8 8 8 7 6 5 6 6 5 6 5 4 4 4 4 5 5 5 6 6 5 4 4 5 4 4 4 4 5 4 4 5 6 6 6 6 6 5 6 6 5 5 6 6 7 7
4 4 5 6 4 5 6 7 5 5 4 7 9 8 8 8 7 8 9 7 6 9 8 8 5 8 10 8 9 10 8 6 6 7 6 5 5 8 7 7 7 8 7 6 6 6 6 6 7 8 8 7 6 5 4 4 5 6 5 5 5 4 3 3 3 4 4 3 3 5 5 4 3 4 6 5 6 4 3 2 2 4 6 6 6 6 7
9 7 4 4 6 8 7 7 5 5 5 7 6 4 6 8 9 9 9 9 7 6 8 9 9 7 10 9 8 7 7 7 6 7 8 7 7 8 8 8 7 7 8 6 6 6 6 7 8 8 9 7 6 5 5 6 7 6 5 5 4 4 3 3 4 4 4 3 2 3 5 4 4 3 3 5 5 4 5 3 2 2 2 4 4 2 3
8 10 11 9 7 4 8 11 7 6 7 6 8 6 7 9 11 8 7 7 7 7 9 10 9 7 5 7 8 7 9 6 5 6 7 8 9 7 3 3 3 4 6 6 5 6 8 7 8 9 8 7 5 6 5 6 7 7 6 6 5 7 9 5 3 2 2 3 3 4 3 4 5 4 3 3 3 4 4 4 4 4 3 2 1 2 1
11 10 11 8 8 10 8 4 8 9 9 8 8 8 7 8 9 10 9 8 7 7 8 9 9 8 8 5 8 6 5 6 6 6 8 8 6 5 7 6 4 7 7 7 6 6 7 7 8 8 7 6 6 6 6 6 7 6 5 5 6 6 5 5 4 4 4 3 3 4 3 2 2 3 4 3 3 4 3 2 3 4 2 0 0 3 2
9 8 4 6 10 7 7 7 8 9 8 7 8 8 10 11 10 10 9 9 9 9 8 5 6 8 8 5 6 7 5 6 6 5 7 6 7 6 5 3 5 7 7 7 7 6 7 8 8 8 7 5 7 7 6 6 6 5 4 5 5 4 5 4 3 4 4 5 5 5 5 4 4 4 2 3 4 2 2 3 2 1 2 1 1 1 2
6 3 3 5 8 11 12 10 10 10 10 10 11 9 9 12 11 9 9 9 9 10 7 7 6 5 6 6 5 8 8 6 6 3 5 3 4 5 6 7 7 8 7 6 6 6 7 7 7 7 5 5 7 7 7 6 5 4 4 4 3 4 3 3 4 4 4 5 6 5 6 6 6 5 5 6 3 2 3 2 1 2 3 2 1 1 2
4 3 5 7 9 10 12 11 9 10 10 10 11 10 8 9 11 11 10 9 8 9 8 8 7 7 5 6 4 4 5 5 5 5 4 4 3 3 5 7 8 6 6 5 5 5 6 6 6 5 3 5 6 6 6 5 4 4 5 5 5 6 6 6 5 5 6 6 6 6 6 6 6 5 4 5 5 5 3 3 3 4 3 2 2 2 3
6 4 5 8 9 9 8 8 10 10 10 11 11 11 11 12 13 12 10 10 10 11 9 9 9 8 6 5 5 4 5 4 4 4 4 4 5 5 5 6 8 8 6 5 4 5 5 5 5 3 3 5 5 5 5 5 5 6 5 4 5 4 4 6 5 6 6 5 5 5 4 4 5 4 4 4 3 3 3 3 1 3 4 3 3 6 4
8 5 4 5 5 8 9 8 12 11 11 13 11 10 9 8 10 10 10 10 9 9 10 9 7 7 7 7 6 5 5 5 5 5 6 6 5 5 5 6 7 7 6 5 5 5 5 6 4 3 4 4 4 4 4 3 4 4 4 4 4 3 4 4 5 6 5 5 4 4 4 3 3 4 4 3 3 3 4 3 1 0 1 1 1 1 3
13 13 14 15 15 14 14 11 10 11 9 9 8 9 9 9 9 9 9 9 10 10 9 9 8 8 7 7 6 6 7 7 7 6 6 6 6 5 5 6 6 7 6 6 5 5 5 5 4 4 4 4 4 3 3 4 4 4 4 4 5 5 4 3 3 4 4 4 3 4 4 4 5 6 5 4 6 6 6 5 5 4 5 3 2 1 2
11 9 11 11 10 11 13 13 12 11 11 10 8 9 10 9 10 10 10 11 11 10 9 9 9 9 8 7 7 7 7 7 7 7 6 6 6 6 6 8 7 7 5 4 4 4 4 5 5 4 4 3 3 2 3 3 3 4 4 3 3 2 2 3 5 4 3 3 4 6 7 8 7 7 8 8 7 7 7 7 6 6 5 4 4 4 5
6 7 7 8 8 9 10 10 11 12 12 11 10 11 11 11 11 11 12 10 8 9 10 10 10 9 8 8 8 7 7 7 7 6 6 6 5 6 7 8 7 7 6 3 1 1 2 4 9 8 4 2 3 3 2 3 4 4 3 3 3 1 2 3 4 3 4 7 7 8 7 9 9 8 8 7 7 7 7 7 7 7 7 6 5 5 5
10 11 10 8 8 10 10 9 10 11 11 11 10 11 12 12 13 11 10 9 9 10 10 10 10 10 10 9 8 7 7 8 7 7 7 5 5 6 7 6 6 7 6 6 2 1 0 2 9 10 4 2 3 3 4 8 5 4 4 5 5 3 5 6 6 6 7 6 6 7 8 8 8 8 8 7 7 7 7 7 7 7 7 6 6 6 6
8 11 11 10 10 10 10 10 9 10 10 10 9 11 14 12 11 11 11 11 10 10 10 11 11 10 8 7 7 8 8 7 7 7 6 6 6 6 6 7 6 6 6 6 4 2 1 4 10 5 3 3 3 4 5 9 7 5 5 4 4 4 5 6 6 6 7 7 7 7 7 7 8 7 7 7 7 7 7 7 7 7 6 6 6 6 6
5 4 6 7 7 8 6 6 6 7 11 13 10 11 12 13 12 12 11 11 11 11 10 10 9 9 9 9 8 7 8 7 7 8 7 5 4 6 5 5 8 7 6 4 4 3 3 5 4 4 4 3 3 3 5 7 7 5 4 3 4 5 5 6 7 7 7 7 8 7 7 7 7 8 7 7 7 7 7 8 7 6 6 6 6 7 6
8 8 8 8 7 7 7 7 8 8 9 11 12 12 11 13 12 12 11 10 10 12 11 11 12 10 9 9 9 9 8 8 8 7 7 6 6 6 5 3 2 4 4 7 4 3 6 10 6 5 4 2 3 3 2 4 5 3 3 3 5 7 7 6 7 7 8 8 9 9 7 7 7 7 7 7 7 6 6 6 6 5 5 5 6 6 6
9 8 8 8 8 8 8 8 7 8 9 10 10 11 12 13 12 12 12 12 11 12 12 12 12 10 10 11 10 9 7 7 7 8 8 8 7 7 7 5 3 3 4 4 3 3 5 6 5 5 3 3 2 2 2 4 3 4 6 7 6 7 7 7 7 7 7 8 7 7 7 7 7 7 6 6 6 6 5 6 5 5 5 5 5 5 6
8 9 9 9 8 8 7 6 7 7 7 9 10 11 12 13 14 14 12 12 12 11 11 11 12 12 10 10 9 8 7 7 8 8 8 9 8 7 7 6 4 3 6 5 5 6 5 5 4 5 4 2 1 4 5 2 4 7 8 7 6 6 7 7 7 7 7 7 7 7 6 6 6 6 5 6 5 5 5 5 5 5 5 5 5 5 6
10 9 10 10 9 8 9 9 10 11 9 8 9 10 11 11 10 10 10 11 12 11 10 9 11 11 11 10 10 10 8 7 7 6 4 2 4 8 10 7 5 6 10 4 5 6 6 5 4 3 4 3 2 5 5 3 5 6 7 6 6 6 6 7 7 6 6 6 6 6 6 6 6 6 6 6 6 6 5 5 5 4 4 5 4 5 5
6 8 9 9 9 8 9 8 7 7 9 7 6 8 10 9 10 12 11 11 10 10 11 11 11 11 11 11 11 9 8 8 7 7 7 6 5 2 3 8 7 8 11 5 4 6 6 4 4 5 7 7 7 6 3 3 5 7 7 7 6 6 6 6 6 6 6 6 6 6 6 5 6 6 6 6 6 5 4 4 4 4 5 5 4 6 6
7 8 9 9 7 8 8 9 11 11 9 8 9 10 9 9 9 10 11 11 11 10 10 12 12 12 11 11 11 10 10 9 9 9 8 6 6 3 3 5 6 4 6 7 5 5 6 4 5 7 6 7 8 6 3 4 5 6 6 6 6 6 6 6 5 4 4 6 6 6 5 6 6 6 6 6 5 5 5 4 4 4 4 4 6 6 6
6 6 6 7 8 8 8 8 7 7 8 7 7 7 6 8 9 9 10 11 11 11 12 12 12 12 11 10 8 7 6 6 4 5 8 9 8 6 7 6 4 5 9 9 5 6 6 8 7 7 7 7 7 5 4 3 4 5 6 7 6 5 5 4 4 4 3 4 4 5 5 5 6 6 6 6 5 5 4 4 3 3 5 5 5 5 5
7 5 6 7 7 6 7 8 9 9 8 7 9 8 6 8 9 8 8 9 10 9 10 10 11 11 11 12 12 10 8 6 3 2 3 4 6 8 8 8 7 9 8 6 6 6 4 4 6 7 8 7 7 4 4 4 3 3 6 5 5 4 4 4 4 4 3 2 2 3 4 4 6 5 4 5 5 5 4 4 4 4 5 4 4 4 4
8 7 7 7 9 8 8 9 11 11 11 12 9 7 7 7 8 7 7 7 8 8 9 8 9 9 9 10 10 11 12 11 8 1 1 6 6 7 7 6 6 10 10 8 7 6 9 8 8 8 8 6 4 3 4 4 3 1 4 5 4 4 4 3 3 3 2 1 3 3 4 5 6 5 4 6 5 4 5 6 6 4 4 4 4 4 4
8 8 6 5 6 7 9 9 9 9 8 7 8 8 8 10 9 8 8 8 9 8 8 8 9 8 7 8 8 7 6 6 8 7 5 6 7 7 6 7 11 13 8 6 5 4 7 9 8 8 6 5 4 3 3 2 2 1 3 5 4 4 5 5 4 4 4 5 4 4 4 5 6 7 6 5 4 4 3 4 6 6 5 5 5 4 4
6 6 7 6 6 7 7 7 7 7 7 8 7 6 7 10 10 8 8 9 8 8 7 7 7 7 7 7 6 7 7 6 6 8 7 6 7 7 7 7 6 9 9 7 5 4 7 11 10 7 4 3 3 2 1 0 0 3 3 4 4 4 4 4 5 4 4 4 4 3 4 5 5 7 7 6 4 3 3 5 6 8 11 7 6 6 5
7 8 8 8 8 8 8 8 8 9 9 10 9 7 8 7 6 4 7 9 9 9 8 6 6 6 7 6 6 7 6 7 8 8 7 6 7 7 7 7 7 7 6 6 6 6 4 4 4 4 3 3 0 0 0 1 2 5 6 6 4 4 4 4 4 4 4 4 3 3 2 3 5 5 6 5 4 3 4 6 7 7 7 6 7 6 6
7 6 5 5 5 4 4 6 6 7 9 10 10 9 10 12 10 4 4 6 8 9 9 9 7 4 7 7 7 7 6 8 7 7 7 7 7 7 7 8 6 7 7 6 6 5 5 5 4 5 4 1 1 1 2 4 4 5 6 4 4 4 4 4 4 4 3 4 3 3 3 4 4 4 4 4 4 4 5 6 7 7 7 7 7 6 6
Wind_Direction
232 215 241 257 248 213 202 231 200 166 165 126 114 197 166 122 128 194 235 176 175 224 221 213 216 213 229 229 266 280 294 315 328 353 359 349 360 355 356 351 353 359 16 12 12 1 126 142 169 183 165 157 157 156 155 148 145 149 143 122 108 129 147 158 173 198 204 190 172 125 100 131 158 188 209 214 199 252 119 120 129 158 151 143 160 175 205
319 302 290 303 351 321 322 3 116 193 94 117 125 137 157 134 157 179 150 152 187 213 215 190 219 216 191 223 258 307 345 336 332 28 20 4 354 353 356 354 350 349 349 355 358 6 75 156 180 176 176 178 166 164 167 154 138 136 134 135 140 154 162 168 173 192 165 161 181 174 131 131 168 180 194 203 186 188 152 145 146 187 152 124 211 200 196
303 285 302 21 24 33 15 347 35 83 106 106 101 107 84 91 87 115 130 131 212 265 174 183 232 228 35 46 47 346 303 325 355 18 29 4 341 350 348 351 354 344 342 345 348 356 346 282 233 203 182 171 171 156 160 146 136 139 134 145 153 160 177 179 168 186 165 207 183 162 144 129 139 196 189 165 156 179 171 169 176 201 194 175 197 200 195
312 312 354 1 357 78 86 11 31 71 67 57 5 90 197 123 139 138 112 121 242 245 207 215 267 74 68 43 329 319 317 324 354 37 22 356 338 356 349 345 346 341 339 347 346 336 336 322 292 204 172 144 127 137 109 77 68 67 137 149 155 167 173 146 168 164 179 212 178 161 154 152 161 190 178 154 161 171 173 175 184 191 190 193 194 190 189
248 257 4 324 338 41 18 317 231 131 92 126 121 80 48 115 140 132 135 223 222 184 175 158 250 89 73 59 347 318 324 320 329 24 352 310 9 344 349 352 349 348 340 338 331 334 323 329 334 164 161 150 146 143 136 124 137 131 123 142 151 155 148 144 150 141 154 170 172 165 179 171 156 166 175 167 171 176 190 195 171 187 201 185 186 180 175
235 279 37 41 56 70 244 228 188 167 149 127 100 95 102 329 116 195 179 187 169 144 175 196 213 113 97 102 322 272 255 293 323 341 322 297 41 357 10 8 16 14 4 352 351 340 342 7 0 22 75 113 132 139 132 128 138 151 146 185 148 113 117 121 135 161 162 147 144 155 175 237 285 210 173 171 179 188 168 153 168 195 219 211 196 186 177
214 327 30 45 334 237 248 312 87 118 115 102 98 71 42 86 91 92 95 121 163 192 199 190 97 107 120 345 219 334 348 335 329 316 320 3 53 32 37 36 35 26 3 356 359 357 337 9 27 29 37 39 90 109 124 130 144 152 141 130 150 156 130 135 134 157 155 145 144 154 167 180 174 135 127 100 81 89 147 165 173 194 199 195 201 185 136
30 57 58 106 237 239 285 325 119 119 102 109 90 57 24 22 134 145 148 181 174 157 110 95 117 131 162 141 295 343 328 342 335 341 332 5 55 42 41 46 34 33 14 359 359 357 6 22 28 42 61 40 57 69 86 99 91 84 111 122 127 129 106 89 75 71 103 110 106 96 83 97 102 86 82 116 143 133 133 183 203 198 213 182 187 160 127
156 172 145 198 287 349 357 243 164 160 159 190 142 141 246 228 199 163 157 172 171 144 148 124 126 120 56 34 326 288 9 340 347 345 321 326 42 45 26 40 44 31 20 12 357 19 41 29 40 53 66 75 65 58 58 83 100 96 77 84 80 76 74 69 67 67 86 96 88 79 78 79 74 78 104 130 225 221 209 218 203 199 203 196 190 165 130
122 126 34 357 21 241 276 246 277 309 158 110 120 96 237 287 222 180 150 174 182 170 140 144 158 64 65 330 293 280 323 187 12 330 324 308 312 65 58 57 53 52 32 18 30 40 42 46 42 52 67 73 79 80 69 70 89 92 92 71 68 71 70 64 65 75 87 96 97 93 84 73 55 39 28 24 20 351 315 254 222 201 188 143 342 128 124
50 53 110 196 163 243 223 281 298 324 97 119 97 71 322 258 195 184 161 169 181 173 160 168 122 106 180 245 258 266 251 96 74 318 309 309 315 30 60 70 67 51 51 46 45 45 47 53 39 55 79 93 87 86 81 74 82 84 80 76 66 69 68 62 58 59 64 67 67 68 64 56 47 41 33 30 8 343 290 246 243 243 210 166 87 70 94
146 135 118 227 208 178 205 237 271 289 305 74 60 26 276 241 192 180 164 171 180 187 160 147 153 155 186 246 247 241 201 146 155 257 305 321 319 346 75 76 65 64 51 61 57 54 54 42 46 62 71 78 78 81 82 78 64 64 71 68 67 68 68 64 59 56 55 60 60 61 60 58 54 49 39 39 30 40 33 41 61 57 61 68 81 68 54
176 137 226 323 305 287 262 264 293 293 236 76 83 193 241 204 170 179 166 180 182 159 151 163 174 227 190 211 209 186 141 100 279 262 273 289 275 273 88 85 82 75 66 65 64 65 58 50 47 52 72 79 74 70 71 73 76 65 66 72 70 72 70 71 71 68 65 68 70 66 67 72 65 56 48 51 53 56 58 58 64 62 60 58 54 60 54
171 189 163 218 229 235 203 273 251 301 57 38 218 238 184 136 162 175 165 165 172 157 167 176 193 235 235 198 149 145 162 179 224 248 284 314 247 121 102 102 91 90 90 85 80 69 55 52 51 51 65 74 76 79 78 77 79 85 79 81 82 77 76 73 70 68 70 71 72 71 66 70 69 63 54 55 58 67 73 76 73 68 65 62 53 54 63
67 71 84 29 136 269 159 225 356 27 93 233 209 120 37 139 156 146 174 160 178 156 158 167 186 170 88 81 158 169 172 186 222 249 268 295 217 141 112 101 101 106 102 95 86 78 60 55 47 51 68 75 77 82 83 84 89 88 86 81 79 78 71 64 60 58 51 54 58 63 70 75 81 78 68 66 64 65 75 75 75 77 75 80 82 69 70
156 127 125 193 210 213 205 124 174 236 199 184 164 131 145 144 133 151 149 177 162 158 147 155 150 133 102 59 79 90 60 58 30 270 254 293 286 115 115 105 105 94 85 86 88 83 77 67 55 45 56 73 72 75 72 59 63 63 62 62 72 75 75 72 67 62 60 59 59 56 56 59 64 69 65 67 66 63 67 76 82 82 76 81 78 65 64
133 194 212 243 218 182 195 148 178 186 188 165 165 150 158 156 179 148 142 160 146 142 141 137 135 96 81 83 75 80 45 64 56 26 314 258 245 78 112 115 113 105 101 99 94 89 80 72 70 74 68 74 77 72 51 57 62 67 67 66 67 68 69 70 69 68 62 56 55 52 49 52 58 57 58 54 67 54 67 71 77 86 85 81 80 83 75
249 19 182 161 118 118 79 42 124 144 132 145 134 139 140 199 157 156 151 152 138 137 139 125 95 104 110 84 62 57 54 66 66 69 259 149 78 29 94 98 92 92 95 98 101 100 91 86 75 69 79 87 85 79 71 66 67 73 76 77 74 72 71 70 71 75 73 65 56 50 53 55 62 54 59 55 65 47 51 66 68 73 75 76 79 80 84
70 248 318 137 154 139 125 108 46 66 104 144 144 140 145 150 133 124 133 138 140 141 138 126 126 117 106 91 80 76 69 71 84 145 140 106 109 106 109 108 110 103 96 74 69 68 65 54 81 84 78 84 103 104 89 75 75 81 86 87 85 79 77 73 69 68 75 75 68 57 51 58 58 57 55 60 60 53 49 47 45 53 55 61 63 66 70
104 219 179 147 124 94 102 129 134 128 110 107 130 144 135 128 130 128 132 121 118 124 123 132 119 115 108 101 94 77 71 67 59 81 100 109 100 81 66 57 91 95 87 87 79 76 74 71 74 80 91 100 111 114 114 112 108 100 97 96 93 91 87 86 81 77 78 77 76 69 53 48 47 46 45 48 60 54 50 43 61 61 58 54 53 57 68
77 51 42 78 55 49 31 348 345 146 142 132 121 119 119 118 114 114 114 127 138 131 139 129 118 111 114 104 100 94 83 73 56 49 81 95 101 97 78 49 71 96 100 90 87 84 80 72 70 69 71 83 97 105 112 116 118 112 109 104 105 102 98 90 86 85 81 78 78 79 74 62 54 42 30 16 46 65 37 19 355 71 95 81 75 64 71
137 161 190 142 112 232 243 212 187 166 154 125 123 116 116 120 121 126 117 100 110 126 137 132 124 123 123 107 102 91 78 84 78 50 49 60 72 77 77 69 71 86 84 93 87 83 77 75 72 69 68 70 79 95 99 101 106 112 115 109 102 100 102 103 104 98 94 90 93 91 87 87 85 72 60 65 30 48 61 31 33 1 348 117 129 118 102
199 225 187 187 158 162 201 173 187 167 159 136 133 137 136 135 133 135 128 124 117 118 122 129 125 121 116 115 107 101 98 83 90 101 99 96 80 68 73 62 41 62 71 76 79 70 61 63 69 71 70 61 58 51 60 67 87 101 105 100 94 96 100 104 112 111 106 102 101 94 95 95 90 89 76 49 44 43 41 44 24 21 39 49 63 74 110
191 193 197 186 153 167 175 164 158 157 161 139 135 137 138 139 141 137 132 140 138 135 130 133 134 130 121 122 112 109 107 110 103 92 79 74 103 98 80 75 49 52 53 58 63 64 55 54 50 48 50 47 62 76 78 83 87 90 94 101 107 112 112 113 112 113 121 122 116 105 95 95 102 104 97 84 46 21 34 33 18 29 47 57 53 53 41
185 199 176 193 152 118 123 137 135 137 148 142 141 148 145 138 134 133 129 132 140 136 135 138 132 128 126 125 120 124 123 117 113 108 97 86 74 91 90 78 73 77 70 72 73 66 63 60 57 52 50 33 25 30 49 70 76 75 79 97 109 110 101 103 106 123 126 130 132 125 128 122 109 112 110 107 100 76 19 44 65 59 53 48 52 54 58
140 154 141 95 103 121 124 96 92 125 140 132 123 132 143 140 138 130 135 138 144 134 121 121 123 131 127 126 119 123 118 129 133 122 109 100 79 60 61 77 86 88 85 75 72 73 67 65 63 56 47 29 23 27 45 66 74 78 78 79 87 99 101 99 102 107 115 137 149 164 154 147 148 132 125 126 130 130 119 114 67 36 73 78 60 60 80
120 130 109 82 91 127 154 147 174 169 144 134 127 131 141 150 141 130 130 133 135 127 126 129 131 135 125 129 129 134 133 140 127 116 120 109 98 96 62 16 67 94 101 92 75 69 71 64 58 54 41 20 17 37 55 75 78 72 70 66 57 69 71 70 69 74 96 113 132 140 141 167 184 168 165 165 151 155 149 132 136 129 106 41 46 109 60
146 155 143 148 174 178 190 195 143 144 139 131 125 123 130 127 123 121 120 113 107 113 120 129 130 130 128 139 125 117 116 122 122 131 114 107 91 65 56 358 54 92 84 78 74 65 66 64 60 55 37 17 25 35 46 61 77 77 70 65 63 57 39 33 27 32 46 40 35 38 49 102 143 166 171 177 183 175 165 160 143 140 133 221 306 309 290
164 172 172 157 169 151 127 130 124 129 134 128 124 127 128 126 132 133 133 131 133 126 124 132 135 137 133 132 122 124 129 123 124 135 121 124 123 123 116 99 70 75 75 74 68 59 62 61 61 56 36 21 33 34 40 53 58 61 65 72 74 63 48 33 26 25 31 35 28 17 17 21 41 50 96 164 190 177 145 156 148 119 118 74 36 32 333
176 160 120 109 117 126 130 138 146 146 142 141 133 139 136 129 131 138 137 139 141 137 142 136 126 125 130 129 136 139 142 143 141 129 115 123 124 133 123 113 99 80 71 67 68 66 66 64 63 60 37 29 41 39 42 49 49 46 48 48 60 74 73 54 40 29 32 31 33 35 38 43 48 57 59 55 68 118 143 131 136 125 128 193 170 119 125
183 144 136 133 138 141 143 151 149 149 145 146 142 141 143 130 133 138 143 143 139 136 143 143 140 137 140 139 137 132 129 124 127 127 130 137 142 133 133 137 124 121 118 110 96 83 75 69 70 69 45 48 47 45 45 47 45 46 42 33 26 22 36 44 44 48 52 54 52 54 48 47 40 46 54 52 63 65 73 136 149 146 164 174 184 182 214
139 129 142 148 153 145 137 143 150 153 153 150 145 154 159 149 148 148 148 149 152 146 144 142 145 150 151 137 131 128 124 119 113 111 112 118 122 128 137 129 121 124 127 123 103 92 83 77 70 49 48 54 50 45 45 40 39 49 38 23 24 357 4 32 47 57 71 71 66 54 48 48 39 48 49 50 49 68 80 92 149 180 160 177 193 217 212
133 118 135 153 141 145 152 164 157 163 159 162 163 161 161 150 145 147 148 145 142 146 146 151 150 145 143 136 131 129 125 122 115 110 110 113 115 123 125 118 119 119 115 113 114 105 98 96 98 83 68 63 54 41 39 41 45 44 30 23 12 355 13 24 69 75 72 65 60 66 57 54 43 39 36 27 24 33 52 69 59 30 110 183 267 11 29
166 175 179 177 167 169 169 174 168 163 165 160 152 153 158 151 144 144 145 147 147 149 152 151 148 144 139 137 135 134 133 121 117 122 123 121 121 115 105 103 107 109 114 113 104 102 100 106 107 93 80 65 49 44 29 35 34 33 19 10 9 8 6 15 65 87 84 71 55 45 43 42 36 37 35 38 49 61 62 52 40 47 82 102 113 121 77
176 177 171 177 177 170 163 159 163 164 162 161 154 156 160 153 146 152 153 152 156 157 150 141 143 145 143 139 141 148 145 139 141 137 136 130 126 117 110 105 102 97 88 83 108 126 138 122 116 110 95 85 74 57 59 46 39 26 3 358 349 344 340 71 86 90 92 81 54 41 41 48 48 49 50 46 40 37 39 40 43 47 51 41 26 38 41
153 151 165 171 173 163 161 161 160 162 165 167 162 157 161 162 155 155 161 161 150 145 145 144 146 145 145 147 149 151 143 138 137 137 138 139 131 121 116 118 118 110 107 83 43 156 149 143 129 128 128 107 58 31 74 73 35 19 2 15 7 7 43 72 69 56 58 60 60 71 71 67 64 60 57 52 50 48 50 46 40 37 39 39 45 54 41
160 159 168 169 165 162 159 160 161 161 166 164 154 154 159 162 163 165 159 151 152 152 150 146 148 152 159 159 152 144 141 143 144 146 148 146 133 125 127 126 127 131 131 133 197 272 255 114 125 120 103 62 45 9 18 51 34 23 18 20 13 38 73 75 67 60 56 59 76 79 77 71 64 59 55 55 54 50 53 49 44 43 40 38 37 41 38
173 159 161 164 167 166 168 168 164 158 156 155 155 157 160 163 161 159 162 160 157 155 152 153 156 155 149 141 141 148 152 151 148 148 147 149 150 140 139 138 149 145 145 171 198 189 227 137 120 105 101 79 58 23 20 37 37 31 22 25 43 72 85 77 70 64 70 74 69 67 69 74 72 63 59 57 55 56 55 52 49 42 34 31 32 38 38
159 161 152 154 156 156 149 147 151 153 157 158 155 156 161 159 161 157 160 162 160 154 150 148 147 147 150 149 155 157 159 160 156 153 154 149 146 146 166 171 174 172 170 178 156 164 106 103 97 95 91 90 67 33 21 27 29 32 21 24 76 82 78 80 76 71 70 77 77 74 70 68 68 71 66 63 61 57 58 63 61 52 44 34 32 27 27
163 165 165 155 159 161 154 154 157 158 163 158 153 155 159 155 158 158 158 157 162 160 154 150 154 158 160 160 160 165 169 162 157 147 136 126 116 106 79 56 138 156 153 154 152 153 137 123 109 108 108 100 93 53 29 29 26 26 26 37 69 77 76 77 79 78 78 78 80 79 75 73 74 76 74 70 64 61 55 52 52 50 53 48 43 37 37
172 167 162 163 167 167 163 153 155 161 161 163 158 151 155 156 156 154 160 162 165 162 158 159 159 161 164 165 164 163 159 153 143 140 135 123 121 124 124 149 193 184 155 145 160 151 125 123 126 115 122 94 67 91 56 28 27 44 80 85 84 85 83 78 80 82 88 89 89 86 87 85 82 79 80 79 77 75 67 63 56 50 47 51 51 48 47
171 165 167 168 166 167 159 145 137 149 167 165 158 154 156 156 160 164 163 159 160 162 162 165 162 161 158 153 148 144 144 144 138 144 149 148 149 140 135 177 188 185 186 166 151 124 119 126 133 137 139 133 131 83 74 45 61 89 93 94 91 90 90 89 89 91 93 98 104 105 103 101 100 95 90 86 83 78 73 64 61 58 47 47 56 60 59
157 166 174 178 172 157 151 157 165 165 163 166 162 158 155 156 155 151 154 157 157 156 155 154 147 139 142 145 145 143 143 138 130 122 87 54 145 162 157 173 170 192 178 136 126 129 140 147 146 145 145 138 114 84 64 60 82 96 96 98 94 92 89 94 96 98 100 105 107 112 111 109 106 105 100 97 94 88 81 78 69 59 56 52 45 56 63
202 175 175 178 175 160 154 156 149 146 150 161 162 152 149 151 153 156 157 157 153 153 152 151 147 146 148 148 145 142 145 142 137 129 113 93 62 23 129 150 169 185 168 136 137 145 157 157 166 157 150 134 105 84 74 74 95 103 106 107 105 103 101 95 92 95 101 111 121 125 127 120 119 119 118 115 111 104 104 107 103 96 88 77 72 67 64
193 177 178 179 160 137 146 153 163 167 159 149 149 152 152 147 152 156 155 155 154 155 153 152 150 150 152 153 154 157 158 156 151 141 125 119 125 169 217 165 161 158 138 139 144 146 158 169 183 156 127 124 104 86 72 84 101 109 110 109 112 115 117 116 117 111 110 113 125 136 134 135 136 132 130 132 133 135 139 133 131 125 106 90 77 72 67
184 176 164 151 156 164 165 157 141 123 136 143 140 139 147 141 149 158 161 160 159 161 160 156 154 154 151 143 133 128 125 131 150 162 157 157 163 185 177 166 147 140 140 135 138 149 167 182 167 138 131 130 101 79 68 83 103 104 98 117 128 127 120 125 123 125 118 119 122 132 143 140 133 139 141 145 151 148 153 147 137 131 120 108 102 101 98
156 156 164 165 165 153 137 132 136 137 135 136 143 151 160 143 146 156 163 162 155 151 153 153 153 154 151 145 142 136 131 115 71 39 109 107 109 136 158 154 153 145 136 140 144 159 177 163 142 143 143 126 103 94 88 73 72 90 104 116 128 125 136 142 147 148 143 146 105 111 143 148 150 149 150 154 156 155 158 151 153 151 132 120 114 109 104
153 159 170 168 165 154 135 134 141 152 163 167 159 144 138 129 130 134 138 137 139 142 145 146 148 148 150 150 152 151 150 144 137 190 174 139 140 141 147 149 159 151 148 151 153 166 165 158 155 150 146 125 109 109 88 70 57 69 108 114 132 138 135 127 119 113 119 111 111 103 103 106 130 146 159 168 176 172 164 160 162 157 134 120 127 130 123
165 166 166 159 150 143 146 148 148 155 164 154 140 144 140 132 131 131 134 136 135 137 142 145 144 145 147 148 143 141 147 150 143 166 187 152 145 147 150 155 163 155 145 150 157 172 167 161 155 149 147 129 108 97 90 82 72 106 150 138 146 143 134 130 137 139 128 119 124 141 141 132 143 156 172 177 177 186 168 145 152 143 129 140 143 146 146
151 137 143 155 158 162 157 148 147 150 148 144 140 136 136 130 128 143 143 143 140 134 132 137 138 140 140 137 131 134 130 104 89 111 128 141 140 139 144 145 143 146 149 152 156 168 174 166 163 155 139 111 101 104 84 45 241 143 166 136 144 154 137 125 123 120 124 135 149 149 134 135 155 165 169 173 175 183 163 127 140 151 150 148 151 161 159
156 165 173 176 176 178 174 163 151 144 143 143 138 127 102 84 79 107 140 140 133 132 132 129 129 136 132 128 129 132 122 114 123 130 130 137 139 143 144 145 149 151 153 152 158 168 169 159 153 140 134 123 110 85 258 204 158 148 150 155 163 152 137 132 133 145 152 144 142 167 200 163 163 165 157 162 173 166 133 128 137 140 146 150 160 168 172
157 157 155 153 152 142 131 120 122 130 137 141 143 142 141 139 141 136 118 134 138 143 143 136 131 143 135 133 131 129 131 129 131 133 139 139 143 144 150 146 143 152 150 150 161 165 167 173 159 138 134 128 216 211 172 137 148 155 155 153 146 149 156 158 151 162 150 136 140 148 136 140 142 135 164 159 137 135 139 137 142 152 158 167 172 170 169